Year,Month,Day,Hour,Minute,Value (Times are PST for temperature in C)
2008,08,06,00,00,21.30
2008,08,06,00,01,21.20
2008,08,06,00,02,21.20
2008,08,06,00,03,21.10
2008,08,06,00,04,21.10
2008,08,06,00,05,21.00
2008,08,06,00,06,21.10
2008,08,06,00,07,21.10
2008,08,06,00,08,21.20
2008,08,06,00,09,21.20
2008,08,06,00,10,21.30
2008,08,06,00,11,21.30
2008,08,06,00,12,21.40
2008,08,06,00,13,21.50
2008,08,06,00,14,21.60
2008,08,06,00,15,21.60
2008,08,06,00,16,21.60
2008,08,06,00,17,21.60
2008,08,06,00,18,21.50
2008,08,06,00,19,21.40
2008,08,06,00,20,21.20
2008,08,06,00,21,21.10
2008,08,06,00,22,21.00
2008,08,06,00,23,20.80
2008,08,06,00,24,20.70
2008,08,06,00,25,20.50
2008,08,06,00,26,20.50
2008,08,06,00,27,20.30
2008,08,06,00,28,20.30
2008,08,06,00,29,20.30
2008,08,06,00,30,20.30
2008,08,06,00,31,20.30
2008,08,06,00,32,20.30
2008,08,06,00,33,20.30
2008,08,06,00,34,20.30
2008,08,06,00,35,20.30
2008,08,06,00,36,20.30
2008,08,06,00,37,20.20
2008,08,06,00,38,20.20
2008,08,06,00,39,20.20
2008,08,06,00,40,20.10
2008,08,06,00,41,20.00
2008,08,06,00,42,19.90
2008,08,06,00,43,19.90
2008,08,06,00,44,19.90
2008,08,06,00,45,19.90
2008,08,06,00,46,19.90
2008,08,06,00,47,19.90
2008,08,06,00,48,19.90
2008,08,06,00,49,19.90
2008,08,06,00,50,20.00
2008,08,06,00,51,20.10
2008,08,06,00,52,20.00
2008,08,06,00,53,19.90
2008,08,06,00,54,19.80
2008,08,06,00,55,19.70
2008,08,06,00,56,19.60
2008,08,06,00,57,19.50
2008,08,06,00,58,19.40
2008,08,06,00,59,19.30
2008,08,06,01,00,19.20
2008,08,06,01,01,19.20
2008,08,06,01,02,19.10
2008,08,06,01,03,19.10
2008,08,06,01,04,19.10
2008,08,06,01,05,19.20
2008,08,06,01,06,19.20
2008,08,06,01,07,19.20
2008,08,06,01,08,19.30
2008,08,06,01,09,19.30
2008,08,06,01,10,19.40
2008,08,06,01,11,19.40
2008,08,06,01,12,19.40
2008,08,06,01,13,19.30
2008,08,06,01,14,19.20
2008,08,06,01,15,19.10
2008,08,06,01,16,19.00
2008,08,06,01,17,18.80
2008,08,06,01,18,18.70
2008,08,06,01,19,18.70
2008,08,06,01,20,18.70
2008,08,06,01,21,18.60
2008,08,06,01,22,18.60
2008,08,06,01,23,18.50
2008,08,06,01,24,18.50
2008,08,06,01,25,18.40
2008,08,06,01,26,18.50
2008,08,06,01,27,18.50
2008,08,06,01,28,18.60
2008,08,06,01,29,18.60
2008,08,06,01,30,18.60
2008,08,06,01,31,18.60
2008,08,06,01,32,18.60
2008,08,06,01,33,18.60
2008,08,06,01,34,18.70
2008,08,06,01,35,18.70
2008,08,06,01,36,18.70
2008,08,06,01,37,18.70
2008,08,06,01,38,18.70
2008,08,06,01,39,18.80
2008,08,06,01,40,18.80
2008,08,06,01,41,18.90
2008,08,06,01,42,18.90
2008,08,06,01,43,19.00
2008,08,06,01,44,19.10
2008,08,06,01,45,19.10
2008,08,06,01,46,19.10
2008,08,06,01,47,19.20
2008,08,06,01,48,19.10
2008,08,06,01,49,19.10
2008,08,06,01,50,19.10
2008,08,06,01,51,19.10
2008,08,06,01,52,19.10
2008,08,06,01,53,19.10
2008,08,06,01,54,19.10
2008,08,06,01,55,19.10
2008,08,06,01,56,19.10
2008,08,06,01,57,19.10
2008,08,06,01,58,19.20
2008,08,06,01,59,19.30
2008,08,06,02,00,19.30
2008,08,06,02,01,19.30
2008,08,06,02,02,19.40
2008,08,06,02,03,19.40
2008,08,06,02,04,19.40
2008,08,06,02,05,19.40
2008,08,06,02,06,19.30
2008,08,06,02,07,19.30
2008,08,06,02,08,19.30
2008,08,06,02,09,19.30
2008,08,06,02,10,19.30
2008,08,06,02,11,19.30
2008,08,06,02,12,19.30
2008,08,06,02,13,19.30
2008,08,06,02,14,19.30
2008,08,06,02,15,19.40
2008,08,06,02,16,19.40
2008,08,06,02,17,19.50
2008,08,06,02,18,19.50
2008,08,06,02,19,19.60
2008,08,06,02,20,19.60
2008,08,06,02,21,19.50
2008,08,06,02,22,19.50
2008,08,06,02,23,19.60
2008,08,06,02,24,19.60
2008,08,06,02,25,19.60
2008,08,06,02,26,19.60
2008,08,06,02,27,19.60
2008,08,06,02,28,19.60
2008,08,06,02,29,19.60
2008,08,06,02,30,19.50
2008,08,06,02,31,19.50
2008,08,06,02,32,19.40
2008,08,06,02,33,19.40
2008,08,06,02,34,19.30
2008,08,06,02,35,19.20
2008,08,06,02,36,19.20
2008,08,06,02,37,19.10
2008,08,06,02,38,19.10
2008,08,06,02,39,19.10
2008,08,06,02,40,19.10
2008,08,06,02,41,19.10
2008,08,06,02,42,19.10
2008,08,06,02,43,19.10
2008,08,06,02,44,19.10
2008,08,06,02,45,19.10
2008,08,06,02,46,19.10
2008,08,06,02,47,19.10
2008,08,06,02,48,19.10
2008,08,06,02,49,19.10
2008,08,06,02,50,19.10
2008,08,06,02,51,19.10
2008,08,06,02,52,19.00
2008,08,06,02,53,18.90
2008,08,06,02,54,18.90
2008,08,06,02,55,18.80
2008,08,06,02,56,18.70
2008,08,06,02,57,18.70
2008,08,06,02,58,18.70
2008,08,06,02,59,18.70
2008,08,06,03,00,18.70
2008,08,06,03,01,18.70
2008,08,06,03,02,18.70
2008,08,06,03,03,18.70
2008,08,06,03,04,18.70
2008,08,06,03,05,18.70
2008,08,06,03,06,18.70
2008,08,06,03,07,18.60
2008,08,06,03,08,18.60
2008,08,06,03,09,18.70
2008,08,06,03,10,18.70
2008,08,06,03,11,18.70
2008,08,06,03,12,18.70
2008,08,06,03,13,18.70
2008,08,06,03,14,18.80
2008,08,06,03,15,18.80
2008,08,06,03,16,18.80
2008,08,06,03,17,18.70
2008,08,06,03,18,18.70
2008,08,06,03,19,18.70
2008,08,06,03,20,18.60
2008,08,06,03,21,18.60
2008,08,06,03,22,18.60
2008,08,06,03,23,18.50
2008,08,06,03,24,18.50
2008,08,06,03,25,18.50
2008,08,06,03,26,18.50
2008,08,06,03,27,18.40
2008,08,06,03,28,18.40
2008,08,06,03,29,18.40
2008,08,06,03,30,18.30
2008,08,06,03,31,18.30
2008,08,06,03,32,18.20
2008,08,06,03,33,18.20
2008,08,06,03,34,18.10
2008,08,06,03,35,18.10
2008,08,06,03,36,18.00
2008,08,06,03,37,17.90
2008,08,06,03,38,17.90
2008,08,06,03,39,17.80
2008,08,06,03,40,17.70
2008,08,06,03,41,17.70
2008,08,06,03,42,17.70
2008,08,06,03,43,17.60
2008,08,06,03,44,17.60
2008,08,06,03,45,17.60
2008,08,06,03,46,17.60
2008,08,06,03,47,17.60
2008,08,06,03,48,17.60
2008,08,06,03,49,17.60
2008,08,06,03,50,17.60
2008,08,06,03,51,17.50
2008,08,06,03,52,17.50
2008,08,06,03,53,17.50
2008,08,06,03,54,17.50
2008,08,06,03,55,17.50
2008,08,06,03,56,17.50
2008,08,06,03,57,17.50
2008,08,06,03,58,17.50
2008,08,06,03,59,17.50
2008,08,06,04,00,17.50
2008,08,06,04,01,17.50
2008,08,06,04,02,17.50
2008,08,06,04,03,17.40
2008,08,06,04,04,17.40
2008,08,06,04,05,17.40
2008,08,06,04,06,17.40
2008,08,06,04,07,17.40
2008,08,06,04,08,17.30
2008,08,06,04,09,17.30
2008,08,06,04,10,17.30
2008,08,06,04,11,17.30
2008,08,06,04,12,17.30
2008,08,06,04,13,17.30
2008,08,06,04,14,17.30
2008,08,06,04,15,17.10
2008,08,06,04,16,17.00
2008,08,06,04,17,16.80
2008,08,06,04,18,16.60
2008,08,06,04,19,16.40
2008,08,06,04,20,16.40
2008,08,06,04,21,16.40
2008,08,06,04,22,16.40
2008,08,06,04,23,16.40
2008,08,06,04,24,16.40
2008,08,06,04,25,16.40
2008,08,06,04,26,16.50
2008,08,06,04,27,16.60
2008,08,06,04,28,16.60
2008,08,06,04,29,16.50
2008,08,06,04,30,16.50
2008,08,06,04,31,16.60
2008,08,06,04,32,16.60
2008,08,06,04,33,16.60
2008,08,06,04,34,16.60
2008,08,06,04,35,16.60
2008,08,06,04,36,16.60
2008,08,06,04,37,16.60
2008,08,06,04,38,16.60
2008,08,06,04,39,16.70
2008,08,06,04,40,16.70
2008,08,06,04,41,16.70
2008,08,06,04,42,16.70
2008,08,06,04,43,16.70
2008,08,06,04,44,16.70
2008,08,06,04,45,16.70
2008,08,06,04,46,16.80
2008,08,06,04,47,16.80
2008,08,06,04,48,16.90
2008,08,06,04,49,17.00
2008,08,06,04,50,17.00
2008,08,06,04,51,17.10
2008,08,06,04,52,17.10
2008,08,06,04,53,17.10
2008,08,06,04,54,17.10
2008,08,06,04,55,17.10
2008,08,06,04,56,17.10
2008,08,06,04,57,17.10
2008,08,06,04,58,17.00
2008,08,06,04,59,17.00
2008,08,06,05,00,17.00
2008,08,06,05,01,17.00
2008,08,06,05,02,17.00
2008,08,06,05,03,17.00
2008,08,06,05,04,17.10
2008,08,06,05,05,17.10
2008,08,06,05,06,17.20
2008,08,06,05,07,17.20
2008,08,06,05,08,17.20
2008,08,06,05,09,17.20
2008,08,06,05,10,17.10
2008,08,06,05,11,17.10
2008,08,06,05,12,17.10
2008,08,06,05,13,17.10
2008,08,06,05,14,17.10
2008,08,06,05,15,17.20
2008,08,06,05,16,17.20
2008,08,06,05,17,17.20
2008,08,06,05,18,17.20
2008,08,06,05,19,17.20
2008,08,06,05,20,17.20
2008,08,06,05,21,17.20
2008,08,06,05,22,17.20
2008,08,06,05,23,17.10
2008,08,06,05,24,17.10
2008,08,06,05,25,17.10
2008,08,06,05,26,17.00
2008,08,06,05,27,17.00
2008,08,06,05,28,17.00
2008,08,06,05,29,17.00
2008,08,06,05,30,17.10
2008,08,06,05,31,17.10
2008,08,06,05,32,17.00
2008,08,06,05,33,17.00
2008,08,06,05,34,17.00
2008,08,06,05,35,17.00
2008,08,06,05,36,17.00
2008,08,06,05,37,17.00
2008,08,06,05,38,16.90
2008,08,06,05,39,16.90
2008,08,06,05,40,16.80
2008,08,06,05,41,16.80
2008,08,06,05,42,16.70
2008,08,06,05,43,16.70
2008,08,06,05,44,16.60
2008,08,06,05,45,16.60
2008,08,06,05,46,16.50
2008,08,06,05,47,16.40
2008,08,06,05,48,16.40
2008,08,06,05,49,16.40
2008,08,06,05,50,16.30
2008,08,06,05,51,16.30
2008,08,06,05,52,16.30
2008,08,06,05,53,16.20
2008,08,06,05,54,16.20
2008,08,06,05,55,16.10
2008,08,06,05,56,16.10
2008,08,06,05,57,16.10
2008,08,06,05,58,16.10
2008,08,06,05,59,16.00
2008,08,06,06,00,15.80
2008,08,06,06,01,15.80
2008,08,06,06,02,15.70
2008,08,06,06,03,15.70
2008,08,06,06,04,15.60
2008,08,06,06,05,15.50
2008,08,06,06,06,15.50
2008,08,06,06,07,15.50
2008,08,06,06,08,15.60
2008,08,06,06,09,15.70
2008,08,06,06,10,15.80
2008,08,06,06,11,15.80
2008,08,06,06,12,15.90
2008,08,06,06,13,16.00
2008,08,06,06,14,16.10
2008,08,06,06,15,16.10
2008,08,06,06,16,16.10
2008,08,06,06,17,16.10
2008,08,06,06,18,16.10
2008,08,06,06,19,16.10
2008,08,06,06,20,16.10
2008,08,06,06,21,16.20
2008,08,06,06,22,16.20
2008,08,06,06,23,16.30
2008,08,06,06,24,16.30
2008,08,06,06,25,16.40
2008,08,06,06,26,16.40
2008,08,06,06,27,16.40
2008,08,06,06,28,16.40
2008,08,06,06,29,16.40
2008,08,06,06,30,16.40
2008,08,06,06,31,16.40
2008,08,06,06,32,16.40
2008,08,06,06,33,16.50
2008,08,06,06,34,16.60
2008,08,06,06,35,16.60
2008,08,06,06,36,16.60
2008,08,06,06,37,16.60
2008,08,06,06,38,16.70
2008,08,06,06,39,16.70
2008,08,06,06,40,16.70
2008,08,06,06,41,16.70
2008,08,06,06,42,16.80
2008,08,06,06,43,16.80
2008,08,06,06,44,16.90
2008,08,06,06,45,16.90
2008,08,06,06,46,16.90
2008,08,06,06,47,16.90
2008,08,06,06,48,17.00
2008,08,06,06,49,17.10
2008,08,06,06,50,17.20
2008,08,06,06,51,17.20
2008,08,06,06,52,17.20
2008,08,06,06,53,17.30
2008,08,06,06,54,17.30
2008,08,06,06,55,17.40
2008,08,06,06,56,17.40
2008,08,06,06,57,17.50
2008,08,06,06,58,17.60
2008,08,06,06,59,17.70
2008,08,06,07,00,17.70
2008,08,06,07,01,17.80
2008,08,06,07,02,17.90
2008,08,06,07,03,17.90
2008,08,06,07,04,18.00
2008,08,06,07,05,18.10
2008,08,06,07,06,18.20
2008,08,06,07,07,18.30
2008,08,06,07,08,18.30
2008,08,06,07,09,18.40
2008,08,06,07,10,18.30
2008,08,06,07,11,18.30
2008,08,06,07,12,18.20
2008,08,06,07,13,18.20
2008,08,06,07,14,18.20
2008,08,06,07,15,18.30
2008,08,06,07,16,18.30
2008,08,06,07,17,18.40
2008,08,06,07,18,18.40
2008,08,06,07,19,18.40
2008,08,06,07,20,18.50
2008,08,06,07,21,18.40
2008,08,06,07,22,18.40
2008,08,06,07,23,18.30
2008,08,06,07,24,18.30
2008,08,06,07,25,18.30
2008,08,06,07,26,18.30
2008,08,06,07,27,18.40
2008,08,06,07,28,18.50
2008,08,06,07,29,18.60
2008,08,06,07,30,18.60
2008,08,06,07,31,18.70
2008,08,06,07,32,18.70
2008,08,06,07,33,18.80
2008,08,06,07,34,18.90
2008,08,06,07,35,19.00
2008,08,06,07,36,19.10
2008,08,06,07,37,19.10
2008,08,06,07,38,19.10
2008,08,06,07,39,19.20
2008,08,06,07,40,19.30
2008,08,06,07,41,19.40
2008,08,06,07,42,19.50
2008,08,06,07,43,19.60
2008,08,06,07,44,19.60
2008,08,06,07,45,19.60
2008,08,06,07,46,19.70
2008,08,06,07,47,19.80
2008,08,06,07,48,19.80
2008,08,06,07,49,19.90
2008,08,06,07,50,19.90
2008,08,06,07,51,19.90
2008,08,06,07,52,19.90
2008,08,06,07,53,19.90
2008,08,06,07,54,19.90
2008,08,06,07,55,19.90
2008,08,06,07,56,19.90
2008,08,06,07,57,20.10
2008,08,06,07,58,20.20
2008,08,06,07,59,20.20
2008,08,06,08,00,20.20
2008,08,06,08,01,20.20
2008,08,06,08,02,20.20
2008,08,06,08,03,20.20
2008,08,06,08,04,20.20
2008,08,06,08,05,20.20
2008,08,06,08,06,20.20
2008,08,06,08,07,20.30
2008,08,06,08,08,20.40
2008,08,06,08,09,20.50
2008,08,06,08,10,20.70
2008,08,06,08,11,20.70
2008,08,06,08,12,20.80
2008,08,06,08,13,20.80
2008,08,06,08,14,20.80
2008,08,06,08,15,20.80
2008,08,06,08,16,20.80
2008,08,06,08,17,20.90
2008,08,06,08,18,21.00
2008,08,06,08,19,21.00
2008,08,06,08,20,21.10
2008,08,06,08,21,21.20
2008,08,06,08,22,21.10
2008,08,06,08,23,21.00
2008,08,06,08,24,21.00
2008,08,06,08,25,20.90
2008,08,06,08,26,20.80
2008,08,06,08,27,20.70
2008,08,06,08,28,20.60
2008,08,06,08,29,20.50
2008,08,06,08,30,20.50
2008,08,06,08,31,20.50
2008,08,06,08,32,20.40
2008,08,06,08,33,20.50
2008,08,06,08,34,20.50
2008,08,06,08,35,20.50
2008,08,06,08,36,20.60
2008,08,06,08,37,20.60
2008,08,06,08,38,20.60
2008,08,06,08,39,20.60
2008,08,06,08,40,20.50
2008,08,06,08,41,20.30
2008,08,06,08,42,20.20
2008,08,06,08,43,20.30
2008,08,06,08,44,20.30
2008,08,06,08,45,20.30
2008,08,06,08,46,20.50
2008,08,06,08,47,20.60
2008,08,06,08,48,20.80
2008,08,06,08,49,21.00
2008,08,06,08,50,21.10
2008,08,06,08,51,21.20
2008,08,06,08,52,21.40
2008,08,06,08,53,21.50
2008,08,06,08,54,21.60
2008,08,06,08,55,21.70
2008,08,06,08,56,21.80
2008,08,06,08,57,21.90
2008,08,06,08,58,21.80
2008,08,06,08,59,21.70
2008,08,06,09,00,21.60
2008,08,06,09,01,21.40
2008,08,06,09,02,21.30
2008,08,06,09,03,21.30
2008,08,06,09,04,21.30
2008,08,06,09,05,21.30
2008,08,06,09,06,21.30
2008,08,06,09,07,21.30
2008,08,06,09,08,21.30
2008,08,06,09,09,21.30
2008,08,06,09,10,21.30
2008,08,06,09,11,21.30
2008,08,06,09,12,21.30
2008,08,06,09,13,21.30
2008,08,06,09,14,21.30
2008,08,06,09,15,21.30
2008,08,06,09,16,21.30
2008,08,06,09,17,21.30
2008,08,06,09,18,21.40
2008,08,06,09,19,21.40
2008,08,06,09,20,21.50
2008,08,06,09,21,21.60
2008,08,06,09,22,21.60
2008,08,06,09,23,21.70
2008,08,06,09,24,21.70
2008,08,06,09,25,21.80
2008,08,06,09,26,21.90
2008,08,06,09,27,21.90
2008,08,06,09,28,22.00
2008,08,06,09,29,22.10
2008,08,06,09,30,22.10
2008,08,06,09,31,22.10
2008,08,06,09,32,22.20
2008,08,06,09,33,22.30
2008,08,06,09,34,22.40
2008,08,06,09,35,22.40
2008,08,06,09,36,22.50
2008,08,06,09,37,22.50
2008,08,06,09,38,22.30
2008,08,06,09,39,22.30
2008,08,06,09,40,22.20
2008,08,06,09,41,22.20
2008,08,06,09,42,22.20
2008,08,06,09,43,22.30
2008,08,06,09,44,22.30
2008,08,06,09,45,22.30
2008,08,06,09,46,22.30
2008,08,06,09,47,22.30
2008,08,06,09,48,22.30
2008,08,06,09,49,22.20
2008,08,06,09,50,22.20
2008,08,06,09,51,22.30
2008,08,06,09,52,22.30
2008,08,06,09,53,22.30
2008,08,06,09,54,22.30
2008,08,06,09,55,22.40
2008,08,06,09,56,22.40
2008,08,06,09,57,22.40
2008,08,06,09,58,22.40
2008,08,06,09,59,22.50
2008,08,06,10,00,22.60
2008,08,06,10,01,22.60
2008,08,06,10,02,22.80
2008,08,06,10,03,22.80
2008,08,06,10,04,22.90
2008,08,06,10,05,22.90
2008,08,06,10,06,22.90
2008,08,06,10,07,22.90
2008,08,06,10,08,22.90
2008,08,06,10,09,22.90
2008,08,06,10,10,22.90
2008,08,06,10,11,22.80
2008,08,06,10,12,22.80
2008,08,06,10,13,22.80
2008,08,06,10,14,22.80
2008,08,06,10,15,22.80
2008,08,06,10,16,22.70
2008,08,06,10,17,22.70
2008,08,06,10,18,22.60
2008,08,06,10,19,22.60
2008,08,06,10,20,22.60
2008,08,06,10,21,22.70
2008,08,06,10,22,22.70
2008,08,06,10,23,22.80
2008,08,06,10,24,22.80
2008,08,06,10,25,22.70
2008,08,06,10,26,22.70
2008,08,06,10,27,22.70
2008,08,06,10,28,22.70
2008,08,06,10,29,22.70
2008,08,06,10,30,22.80
2008,08,06,10,31,22.80
2008,08,06,10,32,22.90
2008,08,06,10,33,22.90
2008,08,06,10,34,23.00
2008,08,06,10,35,23.10
2008,08,06,10,36,23.20
2008,08,06,10,37,23.20
2008,08,06,10,38,23.20
2008,08,06,10,39,23.30
2008,08,06,10,40,23.30
2008,08,06,10,41,23.20
2008,08,06,10,42,23.20
2008,08,06,10,43,23.20
2008,08,06,10,44,23.30
2008,08,06,10,45,23.30
2008,08,06,10,46,23.30
2008,08,06,10,47,23.40
2008,08,06,10,48,23.50
2008,08,06,10,49,23.60
2008,08,06,10,50,23.50
2008,08,06,10,51,23.40
2008,08,06,10,52,23.40
2008,08,06,10,53,23.40
2008,08,06,10,54,23.40
2008,08,06,10,55,23.40
2008,08,06,10,56,23.40
2008,08,06,10,57,23.40
2008,08,06,10,58,23.50
2008,08,06,10,59,23.60
2008,08,06,11,00,23.60
2008,08,06,11,01,23.60
2008,08,06,11,02,23.60
2008,08,06,11,03,23.60
2008,08,06,11,04,23.70
2008,08,06,11,05,23.70
2008,08,06,11,06,23.80
2008,08,06,11,07,23.90
2008,08,06,11,08,23.80
2008,08,06,11,09,23.70
2008,08,06,11,10,23.70
2008,08,06,11,11,23.70
2008,08,06,11,12,23.70
2008,08,06,11,13,23.80
2008,08,06,11,14,23.80
2008,08,06,11,15,23.90
2008,08,06,11,16,23.90
2008,08,06,11,17,23.80
2008,08,06,11,18,23.80
2008,08,06,11,19,23.90
2008,08,06,11,20,23.90
2008,08,06,11,21,24.10
2008,08,06,11,22,24.10
2008,08,06,11,23,24.10
2008,08,06,11,24,24.00
2008,08,06,11,25,23.90
2008,08,06,11,26,23.90
2008,08,06,11,27,23.90
2008,08,06,11,28,23.90
2008,08,06,11,29,23.90
2008,08,06,11,30,23.80
2008,08,06,11,31,24.00
2008,08,06,11,32,24.20
2008,08,06,11,33,24.40
2008,08,06,11,34,24.40
2008,08,06,11,35,24.50
2008,08,06,11,36,24.60
2008,08,06,11,37,24.70
2008,08,06,11,38,24.70
2008,08,06,11,39,24.70
2008,08,06,11,40,24.80
2008,08,06,11,41,24.90
2008,08,06,11,42,25.00
2008,08,06,11,43,25.00
2008,08,06,11,44,25.00
2008,08,06,11,45,25.00
2008,08,06,11,46,25.00
2008,08,06,11,47,25.10
2008,08,06,11,48,25.30
2008,08,06,11,49,25.30
2008,08,06,11,50,25.40
2008,08,06,11,51,25.40
2008,08,06,11,52,25.40
2008,08,06,11,53,25.30
2008,08,06,11,54,25.30
2008,08,06,11,55,25.30
2008,08,06,11,56,25.40
2008,08,06,11,57,25.40
2008,08,06,11,58,25.40
2008,08,06,11,59,25.50
2008,08,06,12,00,25.50
2008,08,06,12,01,25.50
2008,08,06,12,02,25.50
2008,08,06,12,03,25.60
2008,08,06,12,04,25.50
2008,08,06,12,05,25.60
2008,08,06,12,06,25.60
2008,08,06,12,07,25.70
2008,08,06,12,08,25.70
2008,08,06,12,09,25.70
2008,08,06,12,10,25.70
2008,08,06,12,11,25.80
2008,08,06,12,12,25.80
2008,08,06,12,13,25.90
2008,08,06,12,14,25.90
2008,08,06,12,15,25.90
2008,08,06,12,16,25.90
2008,08,06,12,17,25.90
2008,08,06,12,18,25.90
2008,08,06,12,19,26.00
2008,08,06,12,20,26.20
2008,08,06,12,21,26.30
2008,08,06,12,22,26.40
2008,08,06,12,23,26.40
2008,08,06,12,24,26.40
2008,08,06,12,25,26.40
2008,08,06,12,26,26.40
2008,08,06,12,27,26.40
2008,08,06,12,28,26.20
2008,08,06,12,29,26.10
2008,08,06,12,30,26.10
2008,08,06,12,31,26.00
2008,08,06,12,32,25.90
2008,08,06,12,33,25.80
2008,08,06,12,34,25.90
2008,08,06,12,35,26.00
2008,08,06,12,36,26.00
2008,08,06,12,37,26.00
2008,08,06,12,38,26.10
2008,08,06,12,39,26.20
2008,08,06,12,40,26.30
2008,08,06,12,41,26.40
2008,08,06,12,42,26.50
2008,08,06,12,43,26.70
2008,08,06,12,44,26.80
2008,08,06,12,45,26.90
2008,08,06,12,46,27.10
2008,08,06,12,47,27.10
2008,08,06,12,48,27.20
2008,08,06,12,49,27.10
2008,08,06,12,50,27.10
2008,08,06,12,51,27.10
2008,08,06,12,52,27.20
2008,08,06,12,53,27.30
2008,08,06,12,54,27.40
2008,08,06,12,55,27.50
2008,08,06,12,56,27.60
2008,08,06,12,57,27.60
2008,08,06,12,58,27.60
2008,08,06,12,59,27.50
2008,08,06,13,00,27.30
2008,08,06,13,01,27.30
2008,08,06,13,02,27.30
2008,08,06,13,03,27.30
2008,08,06,13,04,27.20
2008,08,06,13,05,27.00
2008,08,06,13,06,26.90
2008,08,06,13,07,26.70
2008,08,06,13,08,26.70
2008,08,06,13,09,26.70
2008,08,06,13,10,26.70
2008,08,06,13,11,26.70
2008,08,06,13,12,26.90
2008,08,06,13,13,27.10
2008,08,06,13,14,27.20
2008,08,06,13,15,27.30
2008,08,06,13,16,27.20
2008,08,06,13,17,27.10
2008,08,06,13,18,27.10
2008,08,06,13,19,27.10
2008,08,06,13,20,27.00
2008,08,06,13,21,26.90
2008,08,06,13,22,26.70
2008,08,06,13,23,26.50
2008,08,06,13,24,26.30
2008,08,06,13,25,26.20
2008,08,06,13,26,26.10
2008,08,06,13,27,26.00
2008,08,06,13,28,25.90
2008,08,06,13,29,25.70
2008,08,06,13,30,25.50
2008,08,06,13,31,25.20
2008,08,06,13,32,25.10
2008,08,06,13,33,25.10
2008,08,06,13,34,25.00
2008,08,06,13,35,25.00
2008,08,06,13,36,25.10
2008,08,06,13,37,25.20
2008,08,06,13,38,25.10
2008,08,06,13,39,25.00
2008,08,06,13,40,25.10
2008,08,06,13,41,25.10
2008,08,06,13,42,25.20
2008,08,06,13,43,25.30
2008,08,06,13,44,25.30
2008,08,06,13,45,25.30
2008,08,06,13,46,25.30
2008,08,06,13,47,25.30
2008,08,06,13,48,25.20
2008,08,06,13,49,25.00
2008,08,06,13,50,25.00
2008,08,06,13,51,25.00
2008,08,06,13,52,25.00
2008,08,06,13,53,25.00
2008,08,06,13,54,25.10
2008,08,06,13,55,25.20
2008,08,06,13,56,25.30
2008,08,06,13,57,25.40
2008,08,06,13,58,25.40
2008,08,06,13,59,25.50
2008,08,06,14,00,25.70
2008,08,06,14,01,25.90
2008,08,06,14,02,26.00
2008,08,06,14,03,26.20
2008,08,06,14,04,26.30
2008,08,06,14,05,26.30
2008,08,06,14,06,26.40
2008,08,06,14,07,26.50
2008,08,06,14,08,26.50
2008,08,06,14,09,26.60
2008,08,06,14,10,26.80
2008,08,06,14,11,26.90
2008,08,06,14,12,27.10
2008,08,06,14,13,27.20
2008,08,06,14,14,27.40
2008,08,06,14,15,27.40
2008,08,06,14,16,27.50
2008,08,06,14,17,27.60
2008,08,06,14,18,27.40
2008,08,06,14,19,27.20
2008,08,06,14,20,27.10
2008,08,06,14,21,27.00
2008,08,06,14,22,27.00
2008,08,06,14,23,27.00
2008,08,06,14,24,27.00
2008,08,06,14,25,27.10
2008,08,06,14,26,27.30
2008,08,06,14,27,27.30
2008,08,06,14,28,27.40
2008,08,06,14,29,27.50
2008,08,06,14,30,27.60
2008,08,06,14,31,27.70
2008,08,06,14,32,27.90
2008,08,06,14,33,28.10
2008,08,06,14,34,28.20
2008,08,06,14,35,28.20
2008,08,06,14,36,28.10
2008,08,06,14,37,27.90
2008,08,06,14,38,27.70
2008,08,06,14,39,27.40
2008,08,06,14,40,27.30
2008,08,06,14,41,27.30
2008,08,06,14,42,27.30
2008,08,06,14,43,27.30
2008,08,06,14,44,27.30
2008,08,06,14,45,27.50
2008,08,06,14,46,27.60
2008,08,06,14,47,27.80
2008,08,06,14,48,28.00
2008,08,06,14,49,28.20
2008,08,06,14,50,28.40
2008,08,06,14,51,28.60
2008,08,06,14,52,28.70
2008,08,06,14,53,28.80
2008,08,06,14,54,28.90
2008,08,06,14,55,28.90
2008,08,06,14,56,29.10
2008,08,06,14,57,29.20
2008,08,06,14,58,29.20
2008,08,06,14,59,29.00
2008,08,06,15,00,28.90
2008,08,06,15,01,28.90
2008,08,06,15,02,28.80
2008,08,06,15,03,28.70
2008,08,06,15,04,28.60
2008,08,06,15,05,28.50
2008,08,06,15,06,28.40
2008,08,06,15,07,28.40
2008,08,06,15,08,28.40
2008,08,06,15,09,28.40
2008,08,06,15,10,28.50
2008,08,06,15,11,28.70
2008,08,06,15,12,28.90
2008,08,06,15,13,29.20
2008,08,06,15,14,29.40
2008,08,06,15,15,29.60
2008,08,06,15,16,29.80
2008,08,06,15,17,29.70
2008,08,06,15,18,29.50
2008,08,06,15,19,29.40
2008,08,06,15,20,29.20
2008,08,06,15,21,29.00
2008,08,06,15,22,28.90
2008,08,06,15,23,28.90
2008,08,06,15,24,28.80
2008,08,06,15,25,28.60
2008,08,06,15,26,28.20
2008,08,06,15,27,28.00
2008,08,06,15,28,27.70
2008,08,06,15,29,27.60
2008,08,06,15,30,27.70
2008,08,06,15,31,27.90
2008,08,06,15,32,28.10
2008,08,06,15,33,28.30
2008,08,06,15,34,28.50
2008,08,06,15,35,28.70
2008,08,06,15,36,28.90
2008,08,06,15,37,28.90
2008,08,06,15,38,28.90
2008,08,06,15,39,29.00
2008,08,06,15,40,28.90
2008,08,06,15,41,28.80
2008,08,06,15,42,28.80
2008,08,06,15,43,28.80
2008,08,06,15,44,28.90
2008,08,06,15,45,28.90
2008,08,06,15,46,29.00
2008,08,06,15,47,29.10
2008,08,06,15,48,29.10
2008,08,06,15,49,29.10
2008,08,06,15,50,29.00
2008,08,06,15,51,28.90
2008,08,06,15,52,28.90
2008,08,06,15,53,28.90
2008,08,06,15,54,28.80
2008,08,06,15,55,28.50
2008,08,06,15,56,28.40
2008,08,06,15,57,28.30
2008,08,06,15,58,28.20
2008,08,06,15,59,28.20
2008,08,06,16,00,28.10
2008,08,06,16,01,28.20
2008,08,06,16,02,28.20
2008,08,06,16,03,28.00
2008,08,06,16,04,27.90
2008,08,06,16,05,27.70
2008,08,06,16,06,27.60
2008,08,06,16,07,27.50
2008,08,06,16,08,27.50
2008,08,06,16,09,27.60
2008,08,06,16,10,27.80
2008,08,06,16,11,28.00
2008,08,06,16,12,28.10
2008,08,06,16,13,28.10
2008,08,06,16,14,28.10
2008,08,06,16,15,28.10
2008,08,06,16,16,28.10
2008,08,06,16,17,28.10
2008,08,06,16,18,28.20
2008,08,06,16,19,28.20
2008,08,06,16,20,28.30
2008,08,06,16,21,28.20
2008,08,06,16,22,27.90
2008,08,06,16,23,27.80
2008,08,06,16,24,27.70
2008,08,06,16,25,27.70
2008,08,06,16,26,27.70
2008,08,06,16,27,27.60
2008,08,06,16,28,27.60
2008,08,06,16,29,27.60
2008,08,06,16,30,27.60
2008,08,06,16,31,27.70
2008,08,06,16,32,27.70
2008,08,06,16,33,27.70
2008,08,06,16,34,27.70
2008,08,06,16,35,27.80
2008,08,06,16,36,27.70
2008,08,06,16,37,27.60
2008,08,06,16,38,27.60
2008,08,06,16,39,27.40
2008,08,06,16,40,27.40
2008,08,06,16,41,27.30
2008,08,06,16,42,27.30
2008,08,06,16,43,27.30
2008,08,06,16,44,27.30
2008,08,06,16,45,27.50
2008,08,06,16,46,27.80
2008,08,06,16,47,28.00
2008,08,06,16,48,28.10
2008,08,06,16,49,28.10
2008,08,06,16,50,28.10
2008,08,06,16,51,28.10
2008,08,06,16,52,28.10
2008,08,06,16,53,28.10
2008,08,06,16,54,28.10
2008,08,06,16,55,28.10
2008,08,06,16,56,28.10
2008,08,06,16,57,28.00
2008,08,06,16,58,27.90
2008,08,06,16,59,27.90
2008,08,06,17,00,27.80
2008,08,06,17,01,27.60
2008,08,06,17,02,27.40
2008,08,06,17,03,27.20
2008,08,06,17,04,27.20
2008,08,06,17,05,27.20
2008,08,06,17,06,27.20
2008,08,06,17,07,27.20
2008,08,06,17,08,27.30
2008,08,06,17,09,27.30
2008,08,06,17,10,27.30
2008,08,06,17,11,27.50
2008,08,06,17,12,27.60
2008,08,06,17,13,27.70
2008,08,06,17,14,27.60
2008,08,06,17,15,27.40
2008,08,06,17,16,27.20
2008,08,06,17,17,27.20
2008,08,06,17,18,27.10
2008,08,06,17,19,27.20